Regional Weather Roundup
Issued by NWS

Home | Current Version | Previous Version | Text Only | Print | Product List | Glossary On
Versions: 1 2 3 4 5 6 7 8 9 10 11 12 13 14 15 16 17 18 19 20 21 22 23 24 25 26 27 28 29 30 31 32 33 34 35 36 37 38 39 40 41 42 43 44 45 46 47 48 49 50
000
ASUS43 KLMK 300510
RWRKY
KENTUCKY REGIONAL WEATHER ROUNDUP
NATIONAL WEATHER SERVICE LOUISVILLE KY
100 AM EDT SAT AUG 30 2014

NOTE "FAIR" INDICATES FEW OR NO CLOUDS BELOW 12,000 FEET
WITH NO SIGNIFICANT WEATHER AND/OR OBSTRUCTIONS TO VISIBILITY.

KYZ001>023-026-027-061>063-070>075-300600-
WESTERN AND SOUTH CENTRAL KENTUCKY

CITY           SKY/WX    TMP DP  RH WIND       PRES   REMARKS
PADUCAH        CLOUDY    76  67  73 SW7       30.00S
HENDERSON      MOCLDY    77  64  65 S7        29.99S
OWENSBORO      NOT AVBL
HOPKINSVILLE   MOCLDY    78  64  61 SE7       30.03R
BOWLING GREEN  CLEAR     73  65  75 CALM      30.05R
GLASGOW        CLEAR     71  64  76 CALM      30.06R
$$

KYZ024-025-028>034-038-045-046-053-300600-
NORTH CENTRAL KENTUCKY

CITY           SKY/WX    TMP DP  RH WIND       PRES   REMARKS
LOUISVILLE/SDF PTCLDY    76  65  68 SE3       30.03R
LOUISVILLE/LOU CLEAR     77  63  61 CALM      30.04R
FORT KNOX      CLEAR     70  65  82 S3        30.04R
$$

KYZ035>037-039>044-047>052-055>060-089>105-300600-
NORTHEAST KENTUCKY

CITY           SKY/WX    TMP DP  RH WIND       PRES   REMARKS
LEXINGTON      CLEAR     76  71  85 SE7       30.09R
COVINGTON      PTCLDY    74  68  81 S6        30.06R
FRANKFORT      CLEAR     71  66  84 SE3       30.06R
$$

KYZ054-064>069-076>088-106>120-300600-
SOUTHEAST KENTUCKY

CITY           SKY/WX    TMP DP  RH WIND       PRES   REMARKS
JACKSON        CLOUDY    74  67  78 CALM      30.12R
LONDON         CLEAR     73  70  90 CALM      30.12R FOG
SOMERSET       CLEAR     68  68 100 CALM      30.11R
MIDDLESBORO    PTCLDY    69  66  91 CALM      30.14R
MONTICELLO     CLEAR     67  67 100 CALM      30.11S FOG
$$



USA.gov is the U.S. government's official web portal to all federal, state and local government web resources and services.